Location: Vancouver
(49.2500°N, 123.1330°W)
Time: 01:12:13
(UTC-07:00)

AO-27 - Visible Passes

Search period start: 29 May 2015 00:00
Search period end: 08 June 2015 00:00
Orbit: 786 x 798 km, 98.7° (Epoch: 28 May)

Date Brightness Start Highest point End Pass type
(mag) Time Alt. Az. Time Alt. Az. Time Alt. Az.
29 May 10.0 02:26:17 10° NE 02:29:18 16° E 02:32:31 10° SE visible
29 May 7.7 04:04:20 10° NNE 04:09:35 83° WNW 04:14:50 10° SSW visible
30 May 8.2 03:35:26 10° NNE 03:40:36 58° E 03:45:46 10° S visible
31 May 9.0 03:06:47 10° NNE 03:11:30 34° E 03:16:15 10° SSE visible
01 Jun 9.7 02:38:30 10° NE 02:42:14 20° E 02:46:06 10° SE visible
01 Jun 7.8 04:17:06 10° N 04:22:18 67° WNW 04:27:30 10° SSW visible
02 Jun 10.2 02:11:24 10° ENE 02:12:48 11° E 02:14:31 10° ESE visible
02 Jun 7.9 03:48:07 10° NNE 03:53:23 74° ESE 03:58:38 10° S visible
03 Jun 8.6 03:19:21 10° NNE 03:24:20 43° E 03:29:19 10° S visible
04 Jun 9.4 02:50:53 10° NE 02:55:08 25° E 02:59:28 10° SSE visible
05 Jun 10.0 02:23:02 10° NE 02:25:47 15° E 02:28:45 10° ESE visible
05 Jun 7.7 04:00:51 10° NNE 04:06:09 89° W 04:11:24 10° SSW visible
06 Jun 8.3 03:32:00 10° NNE 03:37:08 54° E 03:42:17 10° S visible
07 Jun 9.1 03:03:22 10° NNE 03:08:01 32° E 03:12:41 10° SSE visible
